Maun, Botswana

9:46 PM CAT on March 30, 2017 (GMT +0200)
Maun

Weather History for FBMN - November, 2013

Change the Weather History Date:

Saturday, November 2, 2013

  Actual Average Record
Temperature  
Mean Temperature 80 °F -  
Max Temperature 93 °F 91 °F 104 °F (2005)
Min Temperature 66 °F 69 °F 62 °F (2000)
Cooling Degree Days 14    
Growing Degree Days 30 (Base 50)    
Moisture  
Dew Point 26 °F    
Average Humidity 12    
Maximum Humidity 19    
Minimum Humidity 4    
Precipitation  
Precipitation 0.00 in - - ()
Sea Level Pressure  
Sea Level Pressure 29.92 in    
Wind  
Wind Speed 8 mph ()    
Max Wind Speed 16 mph    
Max Gust Speed -    
Visibility 6.1 miles    
Events      
Averages and records for this station are not official NWS values.
T = Trace of Precipitation, MM = Missing Value Source: Averaged Metar Reports

Daily Weather History Graph

Daily Weather History Graph

Search for Another Location

Airport or City:

Trip Planner

Search our weather history database for the weather conditions in past years. The results will help you decide how hot, cold, wet, or windy it might be!

Date:

Astronomy

Nov. 02, 2013 Rise Set
Actual Time 5:44 AM CAT 6:35 PM CAT
Civil Twilight 5:21 AM CAT 6:58 PM CAT
Nautical Twilight 4:54 AM CAT 7:25 PM CAT
Astronomical Twilight 4:26 AM CAT 7:53 PM CAT
Moon 4:43 AM CAT (11/2) 5:41 PM CAT (11/2)
Length of Visible Light 13h 37m
Length of Day
12h 51m
Waning Crescent, 2% of the Moon is Illuminated
Nov 2
Waning Crescent
Nov 3
New
Nov 10
First Quarter
Nov 17
Full
Nov 25
Last Quarter

Hourly Weather History & Observations

Time (CAT) Temp. Dew Point Humidity Pressure Visibility Wind Dir Wind Speed Gust Speed Precip Events Conditions
12:00 AM 77.0 °F 24.8 °F 14% 29.89 in - SSE 9.2 mph - N/A   Clear
1:00 AM 75.2 °F 24.8 °F 15% 29.89 in - SSE 9.2 mph - N/A   Clear
2:00 AM 73.4 °F 24.8 °F 16% 29.89 in - SE 9.2 mph - N/A   Clear
3:00 AM 71.6 °F 24.8 °F 17% 29.89 in - SSE 8.1 mph - N/A   Clear
5:00 AM 66.2 °F 23.0 °F 19% 29.92 in - SSE 4.6 mph - N/A   Clear
7:00 AM 69.8 °F 23.0 °F 17% 29.98 in - SSE 15.0 mph - N/A   Clear
8:00 AM 75.2 °F 24.8 °F 15% 30.01 in - SSE 16.1 mph - N/A   Clear
9:00 AM 78.8 °F 24.8 °F 14% 30.01 in - SE 12.7 mph - N/A   Clear
10:00 AM 80.6 °F 24.8 °F 13% 29.98 in - SE 13.8 mph - N/A   Clear
11:00 AM 86.0 °F 24.8 °F 11% 29.98 in - South 9.2 mph - N/A   Clear
12:00 PM 87.8 °F 24.8 °F 10% 29.95 in - SE 4.6 mph - N/A   Clear
1:00 PM 89.6 °F 26.6 °F 10% 29.92 in - ESE 10.4 mph - N/A   Clear
2:00 PM 92 °F 28 °F 4%  in 6 mi SW 6.9 mph - -   Partly Cloudy
2:00 PM 91.4 °F 28.4 °F 10% 29.89 in - SW 6.9 mph - N/A   Clear
3:00 PM 93.2 °F 28.4 °F 10% 29.86 in 6.2 mi SW 4.6 mph - N/A   Partly Cloudy
4:00 PM 93.2 °F 28.4 °F 10% 29.86 in 6.2 mi Variable 2.3 mph - N/A   Partly Cloudy
5:00 PM 93.2 °F 26.6 °F 9% 29.83 in 6.2 mi SSE 8.1 mph - N/A   Partly Cloudy
6:00 PM 93.2 °F 24.8 °F 9% 29.86 in 6.2 mi SW 6.9 mph - N/A   Partly Cloudy
7:00 PM 87.8 °F 26.6 °F 11% 29.86 in - SSW 6.9 mph - N/A   Clear
8:00 PM 84 °F 26 °F 6%  in 6 mi South 5.8 mph - -   Partly Cloudy
8:00 PM 84.2 °F 26.6 °F 12% 29.89 in - South 5.8 mph - N/A   Clear
9:00 PM 78.8 °F 28.4 °F 16% 29.92 in - South 6.9 mph - N/A   Clear
10:00 PM 80.6 °F 23.0 °F 12% 29.95 in - SSW 10.4 mph - N/A   Clear